Temperature
1 1 1 0 0 -0 -1 -1 -1 -1 -1 -2 -3 -4 -4 -5 -5 -6 -7 -7 -8 -8 -8 -7 -7 -7 -7 -6 -6 -6 -6 -5 -5 -5 -5 -4 -4 -4 -4 -4 -3 -3 -3 -2
-1 -0 -0 -1 -1 -1 -1 -1 -1 -2 -2 -3 -4 -4 -5 -6 -6 -7 -7 -8 -8 -8 -8 -8 -8 -7 -7 -7 -6 -6 -6 -6 -6 -6 -5 -5 -5 -5 -4 -4 -4 -4 -3 -3
-1 -1 -1 -2 -2 -2 -2 -2 -2 -3 -3 -4 -5 -5 -6 -6 -7 -8 -8 -8 -9 -9 -8 -8 -8 -8 -7 -7 -7 -7 -6 -6 -6 -6 -6 -6 -6 -5 -5 -5 -5 -5 -4 -4
-2 -2 -2 -2 -3 -2 -3 -4 -4 -4 -5 -5 -5 -6 -6 -6 -7 -8 -8 -9 -9 -9 -9 -9 -8 -8 -8 -8 -7 -7 -7 -7 -7 -7 -7 -6 -7 -6 -6 -6 -6 -5 -5 -5
-2 -2 -2 -2 -3 -4 -4 -5 -5 -5 -5 -5 -6 -6 -7 -7 -7 -8 -9 -9 -9 -9 -9 -9 -9 -9 -9 -8 -8 -8 -8 -8 -8 -8 -7 -7 -7 -7 -7 -7 -6 -6 -6 -5
-2 -2 -2 -3 -5 -4 -4 -5 -5 -5 -6 -6 -7 -7 -7 -8 -8 -9 -9 -9 -10 -10 -10 -9 -9 -9 -9 -9 -9 -9 -9 -9 -9 -9 -8 -8 -8 -8 -8 -7 -7 -7 -6 -6
-3 -3 -3 -6 -6 -5 -5 -5 -6 -6 -6 -7 -8 -8 -8 -8 -9 -9 -10 -10 -10 -10 -10 -10 -10 -10 -10 -10 -10 -10 -10 -9 -9 -9 -9 -9 -9 -9 -8 -8 -8 -7 -7 -7
-4 -4 -4 -7 -7 -7 -6 -7 -7 -7 -7 -8 -8 -9 -9 -9 -10 -10 -10 -10 -10 -10 -10 -10 -10 -10 -10 -10 -10 -10 -10 -10 -10 -10 -10 -10 -10 -9 -9 -9 -8 -8 -8 -8
-5 -5 -6 -7 -7 -7 -7 -7 -8 -8 -8 -9 -9 -9 -10 -10 -10 -11 -11 -11 -11 -11 -11 -11 -11 -11 -11 -11 -11 -11 -11 -11 -10 -10 -10 -10 -10 -10 -10 -10 -9 -9 -9 -9
-7 -7 -7 -7 -7 -8 -8 -8 -9 -9 -9 -9 -10 -10 -10 -11 -11 -11 -11 -11 -11 -11 -12 -12 -12 -12 -12 -12 -12 -12 -11 -11 -11 -11 -11 -11 -11 -11 -11 -10 -10 -10 -10 -10
-8 -8 -8 -8 -8 -8 -9 -9 -9 -10 -10 -10 -10 -11 -11 -11 -11 -12 -12 -12 -12 -12 -12 -12 -12 -12 -12 -12 -12 -12 -12 -12 -12 -12 -11 -11 -11 -11 -11 -11 -11 -11 -10 -10
-8 -8 -9 -9 -9 -9 -9 -10 -10 -10 -11 -11 -11 -11 -11 -12 -12 -12 -12 -13 -13 -13 -13 -13 -13 -13 -13 -13 -13 -13 -13 -13 -12 -12 -12 -12 -12 -11 -11 -11 -11 -11 -11 -10
-8 -8 -9 -9 -9 -10 -10 -10 -11 -11 -11 -11 -12 -12 -12 -12 -13 -13 -13 -13 -13 -13 -13 -13 -13 -13 -13 -13 -13 -13 -13 -13 -13 -13 -13 -12 -12 -12 -12 -12 -11 -11 -11 -11
-9 -9 -10 -10 -10 -11 -11 -11 -11 -12 -12 -12 -12 -12 -13 -13 -13 -13 -13 -13 -13 -14 -13 -14 -14 -14 -14 -14 -14 -14 -14 -14 -14 -13 -13 -13 -13 -13 -13 -13 -12 -12 -12 -12
-10 -10 -11 -11 -11 -11 -12 -12 -12 -12 -12 -13 -13 -13 -13 -13 -14 -14 -14 -14 -14 -14 -14 -14 -14 -14 -14 -14 -14 -14 -14 -14 -14 -14 -14 -14 -14 -13 -13 -13 -13 -13 -12 -12
-11 -11 -11 -12 -12 -12 -12 -13 -13 -13 -13 -13 -13 -13 -14 -14 -14 -14 -14 -14 -14 -14 -14 -15 -15 -15 -15 -15 -15 -15 -15 -15 -15 -15 -14 -14 -14 -14 -14 -14 -13 -13 -13 -13
-12 -12 -12 -12 -12 -13 -13 -13 -13 -13 -14 -14 -14 -14 -14 -14 -14 -14 -14 -15 -15 -15 -15 -15 -15 -15 -15 -15 -15 -15 -15 -15 -15 -15 -15 -15 -15 -15 -14 -14 -14 -14 -13 -13
-12 -12 -12 -13 -13 -13 -13 -14 -14 -14 -14 -14 -14 -14 -15 -15 -15 -15 -15 -15 -15 -15 -15 -15 -16 -16 -16 -16 -16 -16 -16 -16 -16 -16 -15 -15 -15 -15 -15 -15 -15 -14 -14 -14
-12 -12 -13 -13 -13 -14 -14 -14 -14 -14 -14 -15 -15 -15 -15 -15 -15 -15 -16 -16 -16 -15 -15 -16 -16 -16 -16 -16 -16 -16 -16 -16 -16 -16 -16 -16 -16 -16 -16 -15 -15 -15 -15 -15
-12 -13 -13 -13 -14 -14 -14 -15 -15 -15 -15 -15 -15 -15 -15 -15 -16 -16 -16 -16 -16 -16 -16 -17 -17 -17 -16 -17 -17 -17 -17 -17 -17 -17 -17 -17 -16 -16 -16 -16 -16 -16 -15 -15
-13 -13 -13 -14 -14 -14 -15 -15 -15 -15 -15 -16 -16 -16 -16 -16 -16 -16 -17 -17 -16 -17 -17 -17 -17 -17 -17 -17 -17 -17 -17 -17 -17 -17 -17 -17 -17 -17 -16 -16 -16 -16 -16 -16
-13 -13 -14 -14 -14 -15 -15 -15 -16 -16 -16 -16 -16 -16 -17 -17 -17 -17 -17 -17 -17 -17 -18 -17 -17 -17 -17 -17 -17 -17 -17 -17 -17 -17 -17 -17 -17 -17 -17 -17 -17 -17 -16 -16
-14 -14 -14 -15 -15 -15 -15 -16 -16 -16 -16 -16 -17 -17 -17 -17 -17 -18 -17 -17 -18 -18 -18 -18 -18 -18 -18 -18 -18 -18 -18 -18 -18 -18 -18 -18 -18 -18 -18 -17 -17 -17 -17 -17
-14 -15 -15 -15 -15 -16 -16 -16 -16 -17 -17 -17 -17 -17 -18 -18 -18 -18 -18 -18 -18 -18 -18 -18 -18 -18 -18 -18 -18 -18 -18 -18 -18 -18 -18 -18 -18 -18 -18 -18 -18 -17 -17 -17
-15 -15 -15 -16 -16 -16 -16 -17 -17 -17 -17 -17 -17 -18 -18 -18 -18 -18 -18 -18 -18 -18 -18 -18 -18 -18 -18 -18 -18 -18 -18 -18 -18 -18 -18 -18 -18 -18 -18 -18 -18 -18 -18 -17
-15 -16 -16 -16 -17 -17 -17 -17 -17 -18 -18 -18 -18 -18 -18 -18 -18 -18 -18 -18 -18 -18 -18 -18 -18 -18 -18 -18 -19 -19 -19 -19 -19 -19 -19 -19 -18 -18 -18 -18 -18 -18 -18 -18
-16 -16 -17 -17 -17 -17 -18 -18 -18 -18 -18 -18 -18 -18 -19 -19 -19 -19 -19 -19 -19 -19 -19 -19 -19 -19 -19 -19 -19 -19 -19 -19 -19 -19 -19 -19 -19 -19 -18 -18 -18 -18 -18 -18
Wind_Speed
7 8 6 6 7 7 8 7 7 6 6 5 2 1 1 1 1 1 2 3 3 4 5 5 5 5 5 6 6 5 5 5 5 5 5 5 4 4 4 4 4 4 4 4
6 6 5 7 8 8 8 8 8 8 7 2 1 2 2 1 1 1 2 3 3 4 5 5 5 6 6 6 6 5 5 5 6 5 5 5 5 5 4 4 4 4 3 3
4 3 4 6 7 7 5 4 4 7 6 1 1 1 1 2 1 1 2 3 3 4 4 5 5 5 5 6 6 5 5 5 6 5 5 5 5 5 4 4 4 4 4 4
3 2 6 5 1 3 3 3 3 2 1 0 1 0 0 2 1 1 2 3 3 4 4 5 5 5 5 5 5 5 5 5 6 6 6 6 5 5 5 4 4 4 4 4
2 4 6 3 1 2 3 2 1 3 2 1 1 1 1 2 2 1 1 2 2 3 4 4 5 5 5 5 5 5 5 6 6 6 6 6 6 6 5 4 4 4 4 4
4 4 5 2 1 1 3 3 1 1 1 1 1 1 2 2 2 2 2 2 3 3 3 4 5 5 5 5 5 6 6 6 6 6 6 6 7 6 5 5 5 5 5 4
6 5 4 1 0 1 2 3 1 1 0 1 1 2 1 1 2 1 2 2 3 3 3 4 5 5 5 5 6 7 7 7 6 6 6 6 6 5 5 5 5 4 4 4
4 6 6 0 2 3 2 1 1 2 2 2 1 2 2 1 2 2 2 3 3 3 4 4 4 5 6 6 7 7 7 7 7 6 6 6 5 5 5 5 5 4 4 4
4 4 1 3 3 1 1 1 2 2 2 2 2 2 3 2 2 2 3 3 3 4 5 5 4 4 6 7 7 7 7 8 7 7 6 6 5 5 4 4 4 4 4 4
2 2 1 1 1 1 1 1 2 2 2 1 2 2 3 3 3 3 3 3 3 4 5 5 5 5 6 7 7 7 7 8 7 7 6 5 4 4 4 4 3 4 4 4
3 2 2 1 1 0 1 2 2 2 2 1 1 2 3 3 3 3 4 4 4 4 5 6 6 6 6 6 6 7 7 7 7 7 6 4 4 4 5 4 4 4 3 4
4 2 2 1 1 2 1 1 1 2 2 2 2 3 3 3 3 3 4 4 4 5 5 6 6 6 6 6 6 6 7 7 6 5 5 4 4 5 7 7 9 9 9 8
2 1 0 0 1 2 1 2 2 1 2 3 3 2 3 3 3 3 4 4 5 5 6 6 6 6 6 6 6 6 7 7 6 6 6 5 5 5 5 7 8 9 9 10
1 1 1 1 1 2 2 2 2 2 2 2 2 2 2 3 3 4 4 5 5 5 5 6 6 6 6 6 6 7 7 8 7 6 6 5 5 5 5 5 5 5 7 9
2 1 0 1 2 2 2 2 2 2 2 3 2 2 2 3 4 5 5 5 5 5 6 6 6 7 6 6 7 7 6 5 5 5 5 5 5 5 4 5 5 5 5 6
1 1 1 1 2 2 2 2 2 3 3 3 3 3 3 4 4 5 4 4 5 6 6 6 7 7 7 6 7 6 6 10 9 6 5 5 5 5 5 5 5 5 5 5
1 1 2 3 3 3 3 3 3 3 3 3 4 4 4 4 4 5 5 5 5 6 6 7 7 7 7 6 6 5 5 7 10 7 5 5 5 5 5 4 5 5 5 7
1 2 2 3 3 4 4 3 3 3 3 4 4 4 4 4 5 6 6 6 6 6 6 6 7 7 6 6 6 5 5 5 5 5 5 5 6 5 5 5 5 6 6 6
1 1 2 2 2 3 3 4 4 4 4 4 4 4 4 5 5 6 5 5 6 7 6 7 10 7 6 7 8 5 5 6 6 6 5 8 8 5 5 5 5 5 5 5
1 2 2 2 2 2 3 3 4 4 4 3 4 4 5 5 5 5 5 5 5 5 6 7 7 6 6 7 9 4 5 5 6 6 6 6 6 6 5 6 6 6 5 5
2 2 2 3 3 3 3 4 3 4 4 4 4 5 6 6 5 5 5 6 6 5 6 9 6 5 6 7 8 4 4 5 6 6 6 6 6 6 6 6 6 6 6 5
2 2 3 3 3 4 4 3 4 4 5 4 4 5 6 6 6 6 6 6 6 10 7 5 5 8 9 8 4 4 4 5 5 5 5 6 6 6 6 6 6 6 6 5
2 2 3 3 4 5 5 4 4 4 4 5 5 5 6 6 5 5 6 5 5 10 7 5 9 12 12 6 4 4 5 5 5 5 6 6 6 6 6 6 6 6 6 6
2 3 3 3 3 4 5 5 4 4 5 5 5 5 5 5 5 4 5 10 11 12 6 9 13 13 11 4 4 4 5 5 5 5 6 6 6 6 6 6 6 6 6 7
3 3 3 3 3 4 4 4 4 4 5 4 5 5 4 4 5 5 5 6 11 11 6 9 13 13 7 4 5 5 5 6 6 6 5 6 6 6 6 6 6 7 7 7
3 3 3 4 4 4 3 3 4 4 5 5 5 4 4 4 5 5 5 6 7 10 7 5 6 8 5 5 5 6 6 7 8 7 6 6 7 7 7 7 8 7 7 7
3 3 3 3 3 3 3 4 4 5 5 6 7 6 5 5 5 5 6 5 6 6 5 5 5 5 5 5 6 6 6 6 6 6 6 6 6 7 7 8 7 7 7 7
Wind_Direction
270 284 274 260 252 229 221 227 236 251 259 269 254 221 181 96 81 77 31 7 360 358 356 352 350 351 349 344 345 345 343 341 336 334 334 331 326 321 312 296 287 275 260 249
277 264 264 272 263 242 240 242 244 261 270 296 28 85 113 116 88 29 353 350 354 352 348 344 342 341 340 339 339 340 338 335 337 339 335 330 323 318 312 303 290 283 268 253
267 292 318 274 248 225 220 226 223 244 249 28 48 26 199 169 151 314 338 348 347 342 338 335 334 333 328 326 330 333 332 331 334 333 328 322 317 317 312 306 301 285 276 263
272 307 251 242 71 149 188 244 226 229 283 302 227 332 100 124 117 3 351 348 343 338 335 335 333 330 324 324 327 329 330 329 328 327 321 320 316 310 305 301 296 288 272 267
240 253 261 248 191 153 180 269 240 225 272 338 59 45 39 61 50 15 343 332 325 329 324 328 329 326 323 325 327 329 327 325 324 320 316 315 311 305 297 293 287 283 280 267
230 243 249 245 50 35 104 263 309 108 274 357 46 276 272 26 17 7 7 0 347 340 334 332 329 328 329 326 327 323 320 317 316 313 307 304 302 300 297 289 284 287 286 277
233 242 258 283 299 98 167 247 356 52 343 29 247 243 293 348 351 359 353 349 347 336 327 326 331 335 330 327 323 319 318 315 312 309 303 298 297 298 297 294 291 287 284 281
211 228 246 121 131 176 216 41 40 34 26 7 347 3 354 341 337 345 342 342 343 332 324 328 337 337 328 323 322 322 319 314 311 309 306 305 300 299 299 297 294 288 286 283
202 216 153 141 154 139 60 46 15 10 357 360 342 324 328 326 325 328 328 327 332 326 322 325 332 334 323 322 325 324 320 315 312 311 307 304 298 295 293 290 288 291 290 291
256 260 219 175 147 44 46 34 6 9 0 352 310 315 319 316 320 323 320 321 327 326 322 323 327 327 323 323 325 322 317 315 315 313 308 300 295 291 290 287 288 290 291 291
252 268 315 280 206 114 46 32 21 13 2 338 321 315 314 308 311 313 316 321 322 318 313 314 321 322 323 325 326 321 317 316 316 315 307 300 297 285 285 273 276 280 276 283
238 242 221 256 44 51 68 5 345 344 340 345 336 313 315 309 310 311 314 320 318 314 312 313 318 318 320 322 323 319 317 318 318 319 315 307 303 304 298 293 296 295 294 291
233 25 56 309 16 44 32 345 344 330 312 318 325 319 312 307 310 316 316 315 310 309 310 311 312 311 314 318 318 313 309 312 313 315 314 308 307 307 310 312 305 302 301 299
62 55 357 31 19 9 2 352 351 337 325 317 316 321 319 314 314 312 307 307 308 308 307 306 305 305 310 314 311 309 306 305 309 309 308 304 301 301 301 303 309 309 307 305
43 58 269 338 349 350 5 7 350 332 331 333 333 326 321 314 308 307 310 315 315 311 309 308 306 306 313 314 311 307 305 305 306 306 305 303 301 300 299 299 300 302 304 307
346 353 336 316 313 329 344 337 314 310 318 319 320 316 311 304 301 304 307 310 308 305 306 306 303 307 313 311 309 307 305 305 311 310 307 307 305 301 300 300 300 301 301 304
36 327 324 314 311 313 306 294 286 293 302 302 302 306 307 305 304 304 304 302 296 292 296 299 302 308 308 307 306 305 305 306 309 310 308 306 304 300 297 297 297 298 298 301
212 261 274 280 290 297 303 305 301 300 296 296 302 302 298 295 293 298 304 308 307 301 300 301 304 306 306 307 306 301 302 303 305 305 305 304 301 299 300 299 300 299 299 300
282 297 305 298 289 283 285 292 298 297 298 298 293 289 285 284 286 291 299 302 301 301 305 304 310 315 311 308 311 300 300 299 301 302 303 303 305 304 301 296 294 294 296 297
336 334 324 315 306 287 282 286 289 291 290 288 287 288 289 289 291 292 291 282 275 282 295 304 307 305 304 302 308 303 304 304 304 304 303 300 300 299 296 295 294 294 294 294
308 309 307 307 305 297 287 283 282 285 290 286 280 281 285 289 288 286 289 290 294 295 299 306 311 306 304 306 306 301 298 298 298 299 301 302 302 302 299 296 294 294 294 295
286 287 289 293 296 298 295 287 278 278 282 282 282 285 291 294 294 289 274 275 293 304 309 297 296 301 307 308 301 297 297 298 297 298 297 298 299 300 300 301 300 298 296 294
283 282 285 287 288 293 299 292 281 278 278 280 284 286 286 287 289 292 296 296 297 301 306 295 301 306 309 311 304 298 297 296 295 295 295 296 297 299 299 299 298 298 296 295
287 286 285 288 290 293 295 293 289 286 280 279 276 276 281 289 288 278 283 302 308 306 303 303 309 312 315 317 306 299 296 294 291 291 293 293 294 295 295 295 296 294 293 291
287 285 284 289 289 287 291 301 303 297 293 290 287 283 278 275 282 291 291 294 302 308 307 307 310 313 317 308 300 294 292 289 290 291 288 290 290 290 290 290 290 289 288 287
283 283 280 275 276 284 293 296 297 298 300 299 297 291 288 287 286 287 289 291 293 303 306 302 304 305 303 298 294 292 290 293 297 296 292 289 288 287 288 289 288 286 286 285
285 284 287 292 293 293 293 291 291 295 298 296 297 296 295 294 292 292 294 295 296 297 296 296 294 292 292 292 292 292 290 289 288 287 287 285 283 283 284 283 284 284 284 284
Height
1472 1469 1469 1471 1471 1472 1474 1473 1473 1469 1469 1469 1471 1472 1472 1473 1473 1473 1472 1471 1470 1469 1468 1466 1465 1463 1462 1461 1460 1458 1457 1456 1455 1454 1453 1452 1451 1451 1450 1450 1450 1451 1451 1452
1474 1469 1469 1469 1467 1468 1469 1469 1469 1468 1469 1468 1469 1470 1471 1471 1471 1471 1471 1470 1469 1467 1466 1464 1463 1461 1460 1459 1457 1457 1455 1454 1453 1451 1450 1449 1448 1447 1446 1446 1446 1446 1446 1446
1474 1470 1470 1471 1467 1466 1467 1466 1468 1468 1469 1468 1469 1469 1469 1469 1469 1469 1469 1468 1467 1465 1464 1463 1461 1460 1458 1457 1455 1454 1453 1452 1450 1449 1447 1446 1445 1444 1443 1442 1441 1441 1441 1441
1475 1474 1476 1467 1463 1462 1465 1466 1467 1467 1467 1467 1468 1468 1468 1468 1468 1467 1467 1466 1465 1464 1462 1461 1460 1458 1456 1455 1453 1452 1450 1449 1448 1446 1444 1443 1441 1440 1439 1438 1437 1436 1436 1436
1475 1474 1466 1464 1463 1464 1466 1467 1465 1466 1466 1466 1466 1466 1467 1467 1466 1466 1465 1464 1463 1462 1460 1459 1457 1456 1454 1452 1450 1449 1447 1446 1444 1443 1441 1439 1438 1436 1435 1434 1433 1432 1431 1432
1472 1471 1466 1464 1465 1463 1466 1469 1465 1464 1465 1466 1466 1468 1467 1465 1465 1464 1463 1462 1461 1460 1458 1457 1455 1453 1451 1449 1448 1446 1444 1442 1441 1440 1438 1436 1434 1432 1431 1430 1429 1428 1427 1427
1472 1469 1464 1467 1464 1464 1470 1467 1465 1464 1464 1465 1465 1466 1465 1463 1463 1462 1461 1460 1459 1457 1456 1454 1452 1451 1449 1447 1445 1443 1441 1439 1438 1436 1434 1432 1430 1429 1427 1426 1425 1424 1423 1423
1469 1469 1467 1466 1465 1467 1466 1464 1464 1464 1464 1464 1463 1463 1462 1461 1460 1459 1458 1457 1456 1454 1453 1451 1450 1448 1446 1444 1442 1440 1438 1436 1434 1432 1430 1428 1426 1425 1424 1422 1421 1420 1419 1419
1467 1467 1464 1463 1463 1463 1463 1463 1463 1463 1462 1462 1461 1461 1460 1459 1458 1457 1456 1454 1453 1452 1450 1449 1447 1445 1443 1441 1439 1437 1435 1432 1430 1427 1426 1424 1423 1421 1420 1419 1418 1417 1416 1415
1465 1463 1462 1462 1462 1462 1462 1462 1462 1461 1461 1460 1459 1459 1458 1457 1455 1454 1453 1452 1450 1449 1447 1446 1444 1443 1441 1439 1436 1434 1431 1429 1426 1424 1422 1420 1419 1418 1417 1416 1415 1414 1413 1412
1465 1463 1462 1461 1461 1461 1461 1460 1460 1459 1459 1458 1457 1456 1455 1454 1453 1452 1450 1449 1448 1446 1445 1443 1441 1440 1438 1436 1433 1430 1428 1425 1423 1421 1418 1417 1416 1415 1414 1413 1413 1412 1410 1410
1462 1460 1461 1460 1460 1459 1459 1458 1458 1457 1456 1456 1455 1453 1452 1451 1450 1449 1448 1447 1445 1444 1442 1440 1438 1436 1435 1432 1430 1428 1425 1422 1420 1418 1416 1414 1413 1412 1411 1411 1410 1409 1408 1407
1459 1458 1459 1459 1458 1458 1457 1457 1456 1455 1454 1453 1452 1451 1450 1449 1448 1447 1445 1444 1442 1441 1439 1437 1435 1433 1431 1429 1427 1425 1422 1420 1417 1415 1413 1412 1410 1409 1407 1406 1406 1405 1404 1404
1457 1458 1457 1457 1457 1456 1455 1454 1454 1453 1452 1451 1450 1449 1448 1446 1445 1444 1443 1441 1440 1438 1436 1434 1432 1430 1429 1426 1424 1422 1420 1417 1415 1413 1411 1409 1408 1406 1405 1403 1402 1400 1400 1400
1456 1456 1456 1455 1455 1454 1453 1452 1451 1450 1449 1448 1448 1446 1445 1444 1443 1441 1440 1439 1437 1435 1433 1431 1429 1427 1426 1424 1421 1419 1417 1415 1412 1410 1408 1407 1405 1404 1402 1401 1399 1398 1396 1396
1454 1454 1454 1453 1452 1452 1451 1450 1449 1448 1447 1446 1445 1444 1443 1442 1440 1439 1437 1436 1434 1432 1430 1428 1426 1425 1423 1420 1418 1416 1414 1412 1410 1408 1406 1404 1402 1400 1399 1397 1396 1395 1393 1392
1452 1452 1451 1451 1450 1449 1449 1448 1447 1446 1445 1444 1443 1441 1440 1439 1437 1436 1434 1433 1431 1429 1427 1425 1423 1422 1419 1417 1415 1413 1411 1409 1407 1405 1403 1401 1399 1397 1396 1394 1393 1392 1390 1390
1451 1450 1450 1449 1448 1447 1446 1445 1444 1443 1442 1441 1440 1439 1437 1435 1434 1432 1431 1429 1427 1426 1424 1422 1420 1418 1416 1414 1412 1410 1408 1406 1404 1402 1400 1398 1396 1395 1393 1391 1390 1388 1387 1386
1449 1448 1447 1447 1446 1445 1444 1443 1442 1441 1439 1438 1437 1435 1434 1432 1431 1429 1427 1425 1423 1421 1420 1419 1417 1415 1413 1411 1409 1407 1405 1403 1401 1399 1397 1395 1393 1391 1390 1388 1387 1385 1384 1382
1447 1446 1445 1444 1443 1442 1441 1440 1439 1437 1436 1435 1433 1432 1430 1429 1427 1426 1424 1422 1420 1418 1417 1415 1413 1411 1409 1407 1406 1403 1401 1400 1398 1395 1394 1392 1390 1388 1386 1385 1383 1382 1380 1379
1444 1443 1442 1441 1440 1439 1438 1437 1436 1434 1433 1432 1430 1428 1427 1425 1424 1422 1420 1418 1416 1415 1413 1411 1409 1407 1405 1404 1402 1400 1398 1396 1394 1392 1390 1388 1386 1385 1383 1381 1380 1378 1377 1375
1442 1441 1440 1439 1438 1436 1435 1434 1433 1431 1429 1428 1427 1425 1423 1421 1420 1418 1416 1415 1413 1411 1409 1407 1405 1404 1402 1401 1398 1396 1394 1392 1391 1389 1387 1385 1383 1381 1379 1377 1376 1374 1373 1371
1440 1439 1438 1436 1435 1434 1432 1431 1429 1428 1426 1425 1423 1421 1420 1418 1416 1414 1412 1411 1409 1407 1406 1404 1402 1400 1399 1397 1394 1392 1390 1388 1387 1385 1383 1381 1379 1377 1375 1373 1372 1370 1369 1367
1437 1436 1435 1434 1432 1431 1429 1427 1426 1425 1423 1421 1420 1418 1416 1414 1412 1411 1409 1407 1405 1404 1402 1400 1398 1396 1395 1392 1390 1388 1386 1384 1382 1381 1379 1377 1375 1373 1371 1370 1368 1366 1365 1363
1435 1433 1432 1431 1429 1428 1426 1424 1423 1421 1420 1418 1416 1415 1413 1411 1409 1407 1405 1403 1401 1400 1398 1396 1394 1392 1390 1388 1386 1384 1382 1380 1378 1376 1374 1373 1371 1369 1367 1365 1364 1362 1360 1359
1432 1431 1429 1428 1427 1425 1423 1421 1420 1418 1416 1414 1413 1411 1409 1408 1406 1404 1402 1400 1398 1396 1394 1392 1390 1388 1386 1384 1382 1380 1378 1376 1374 1372 1370 1368 1366 1364 1363 1361 1359 1357 1356 1354
1429 1428 1426 1425 1423 1422 1420 1419 1417 1415 1413 1411 1409 1408 1406 1404 1402 1400 1398 1396 1394 1392 1390 1388 1386 1384 1382 1380 1378 1376 1374 1372 1370 1368 1366 1364 1362 1360 1358 1356 1355 1353 1351 1350